Weather History for Fremont, MI

Change the Weather History Date:

Saturday, April 5, 2014

  Actual Average (KMKG) Record (KMKG)
Temperature  
Mean Temperature 36 °F 42 °F  
Max Temperature 43 °F 51 °F 79 °F (1988)
Min Temperature 28 °F 34 °F 15 °F (1982)
Degree Days  
Heating Degree Days 30 23  
Month to date heating degree days 117  
Since 1 July heating degree days 5779  
Cooling Degree Days 0 0  
Month to date cooling degree days 0  
Year to date cooling degree days 0  
Moisture  
Dew Point 22 °F    
Average Humidity 62    
Maximum Humidity 90    
Minimum Humidity 31    
Precipitation  
Precipitation 0.00 in 0.09 in 1.17 in (1947)
Month to date precipitation 0.45  
Year to date precipitation 6.56  
Snow  
Snow 0.00 in 0.10 in 12.00 in (1982)
Month to date snowfall 0.8  
Since 1 July snowfall 92.2  
Snow Depth -    
Sea Level Pressure  
Sea Level Pressure 30.07 in    
Wind  
Wind Speed 13 mph (WNW)    
Max Wind Speed 25 mph    
Max Gust Speed 38 mph    
Visibility 10 miles    
Events Snow    
T = Trace of Precipitation, MM = Missing Value Source: NWS Daily Summary

Daily Weather History Graph

Daily Weather History Graph

Search for Another Location

Airport:

Trip Planner

Search our weather history database for the weather conditions in past years. The results will help you decide how hot, cold, wet, or windy it might be!

Date:

Astronomy

Apr. 05, 2014 Rise Set
Actual Time 7:18 AM EDT 8:15 PM EDT
Civil Twilight 6:49 AM EDT 8:44 PM EDT
Nautical Twilight 6:14 AM EDT 9:19 PM EDT
Astronomical Twilight 5:38 AM EDT 9:55 PM EDT
Moon 11:19 AM EDT (4/5) 1:30 AM EDT (4/5)
Length of Visible Light 13h 54m
Length of Day
12h 56m
Waxing Crescent, 34% of the Moon is Illuminated
Apr 5
Waxing Crescent
Apr 7
First Quarter
Apr 15
Full
Apr 22
Last Quarter
Apr 29
New

Hourly Weather History & Observations

Time (EDT) Temp. Windchill Dew Point Humidity Pressure Visibility Wind Dir Wind Speed Gust Speed Precip Events Conditions
12:13 AM 30.2 °F 16.8 °F 26.2 °F 85% 29.80 in 10.0 mi NW 23.0 mph 38.0 mph N/A Snow Light Snow
12:33 AM 30.0 °F 19.1 °F 27.3 °F 90% 29.81 in 5.0 mi NW 15.0 mph 23.0 mph N/A Snow Light Snow
12:53 AM 30.0 °F 16.9 °F 25.9 °F 85% 29.83 in 10.0 mi NW 21.9 mph 28.8 mph N/A Snow Light Snow
1:13 AM 29.3 °F 15.0 °F 23.4 °F 78% 29.84 in 10.0 mi NW 25.3 mph 33.4 mph N/A   Overcast
1:33 AM 28.9 °F 16.9 °F 23.2 °F 79% 29.85 in 10.0 mi NW 17.3 mph 24.2 mph N/A   Overcast
1:54 AM 29.1 °F 17.5 °F 23.9 °F 81% 29.87 in 10.0 mi NW 16.1 mph 23.0 mph N/A   Overcast
2:14 AM 29.3 °F 18.6 °F 25.3 °F 85% 29.88 in 10.0 mi WNW 13.8 mph - N/A   Overcast
2:34 AM 29.7 °F 17.8 °F 24.8 °F 82% 29.89 in 10.0 mi NW 17.3 mph 26.5 mph N/A   Overcast
2:54 AM 29.8 °F 18.4 °F 24.4 °F 80% 29.91 in 10.0 mi NW 16.1 mph 24.2 mph N/A   Overcast
3:14 AM 30.0 °F 19.1 °F 24.3 °F 79% 29.92 in 10.0 mi WNW 15.0 mph - N/A   Overcast
3:34 AM 30.2 °F 18.5 °F 23.0 °F 75% 29.93 in 10.0 mi NW 17.3 mph 24.2 mph N/A   Overcast
3:54 AM 30.2 °F 19.3 °F 23.0 °F 75% 29.93 in 10.0 mi NW 15.0 mph 21.9 mph N/A   Overcast
4:14 AM 30.2 °F 20.2 °F 23.4 °F 76% 29.94 in 10.0 mi WNW 12.7 mph - N/A   Overcast
4:35 AM 30.2 °F 21.3 °F 23.9 °F 77% 29.95 in 10.0 mi WNW 10.4 mph - N/A   Overcast
4:55 AM 30.4 °F 19.5 °F 23.9 °F 77% 29.96 in 10.0 mi NW 15.0 mph 23.0 mph N/A   Overcast
5:15 AM 30.6 °F 21.2 °F 23.5 °F 75% 29.97 in 10.0 mi NW 11.5 mph 20.7 mph N/A   Overcast
5:35 AM 30.4 °F 21.0 °F 23.5 °F 76% 29.98 in 10.0 mi NW 11.5 mph - N/A   Overcast
5:55 AM 30.2 °F 20.8 °F 23.9 °F 77% 29.99 in 10.0 mi WNW 11.5 mph - N/A   Overcast
6:15 AM 30.2 °F 21.9 °F 24.6 °F 80% 30.00 in 10.0 mi NW 9.2 mph - N/A   Overcast
6:35 AM 30.0 °F 21.7 °F 24.6 °F 80% 30.01 in 10.0 mi NW 9.2 mph - N/A   Overcast
6:50 AM 30.0 °F 21.7 °F 25.2 °F 82% 30.01 in 10.0 mi NW 9.2 mph - N/A   Overcast
7:10 AM 30.0 °F 24.1 °F 25.3 °F 83% 30.03 in 10.0 mi NW 5.8 mph - N/A   Overcast
7:30 AM 30.0 °F 21.7 °F 25.5 °F 83% 30.04 in 10.0 mi NW 9.2 mph - N/A   Overcast
7:51 AM 30.2 °F 23.4 °F 25.5 °F 83% 30.05 in 10.0 mi WNW 6.9 mph - N/A   Overcast
8:11 AM 30.2 °F 20.8 °F 23.9 °F 77% 30.07 in 10.0 mi NW 11.5 mph - N/A   Overcast
8:31 AM 30.6 °F 21.8 °F 23.9 °F 76% 30.08 in 10.0 mi NW 10.4 mph - N/A   Overcast
8:51 AM 30.7 °F 24.1 °F 24.3 °F 77% 30.09 in 10.0 mi NW 6.9 mph - N/A   Overcast
9:11 AM 30.9 °F 21.7 °F 23.9 °F 75% 30.09 in 10.0 mi NNW 11.5 mph - N/A   Mostly Cloudy
9:31 AM 31.1 °F 21.4 °F 23.4 °F 73% 30.10 in 10.0 mi NW 12.7 mph 17.3 mph N/A   Mostly Cloudy
9:51 AM 31.1 °F 22.4 °F 23.9 °F 75% 30.11 in 10.0 mi NW 10.4 mph - N/A   Mostly Cloudy
10:11 AM 32.2 °F 25.0 °F 24.8 °F 74% 30.11 in 10.0 mi WNW 8.1 mph - N/A   Scattered Clouds
10:31 AM 32.4 °F 26.0 °F 24.4 °F 73% 30.12 in 10.0 mi NW 6.9 mph - N/A   Mostly Cloudy
10:52 AM 33.4 °F 25.9 °F 24.8 °F 71% 30.13 in 10.0 mi NW 9.2 mph - N/A   Scattered Clouds
11:12 AM 34.9 °F 27.7 °F 25.5 °F 69% 30.14 in 10.0 mi NW 9.2 mph - N/A   Scattered Clouds
11:32 AM 35.8 °F 28.8 °F 25.2 °F 65% 30.14 in 10.0 mi NW 9.2 mph - N/A   Clear
11:52 AM 36.5 °F 29.7 °F 24.3 °F 61% 30.14 in 10.0 mi WNW 9.2 mph - N/A   Clear
12:12 PM 37.2 °F 31.2 °F 23.4 °F 57% 30.15 in 10.0 mi WNW 8.1 mph - N/A   Clear
12:32 PM 38.1 °F 32.3 °F 23.4 °F 55% 30.15 in 10.0 mi West 8.1 mph - N/A   Clear
12:52 PM 39.0 °F 34.0 °F 22.3 °F 51% 30.15 in 10.0 mi NW 6.9 mph - N/A   Clear
1:12 PM 39.2 °F 31.6 °F 21.9 °F 50% 30.15 in 10.0 mi West 12.7 mph 16.1 mph N/A   Clear
1:32 PM 40.1 °F 32.7 °F 16.7 °F 39% 30.15 in 10.0 mi NNW 12.7 mph 18.4 mph N/A   Clear
1:53 PM 40.5 °F 33.2 °F 15.1 °F 36% 30.16 in 10.0 mi NW 12.7 mph 18.4 mph N/A   Clear
2:13 PM 40.5 °F 32.8 °F 14.5 °F 35% 30.16 in 10.0 mi WNW 13.8 mph 18.4 mph N/A   Clear
2:33 PM 40.8 °F 35.0 °F 14.5 °F 34% 30.16 in 10.0 mi NW 9.2 mph - N/A   Clear
2:53 PM 41.9 °F 37.5 °F 14.7 °F 33% 30.15 in 10.0 mi NW 6.9 mph 16.1 mph N/A   Clear
3:13 PM 41.9 °F 35.9 °F 15.6 °F 35% 30.15 in 10.0 mi NNW 10.4 mph - N/A   Clear
3:33 PM 42.6 °F 37.2 °F 15.6 °F 34% 30.15 in 10.0 mi NW 9.2 mph - N/A   Clear
3:53 PM 43.3 °F 36.1 °F 15.6 °F 33% 30.14 in 10.0 mi NW 15.0 mph - N/A   Clear
4:13 PM 43.5 °F 36.7 °F 16.0 °F 33% 30.15 in 10.0 mi NNW 13.8 mph 18.4 mph N/A   Clear
4:34 PM 43.7 °F 37.7 °F 15.1 °F 32% 30.15 in 10.0 mi West 11.5 mph - N/A   Clear
4:54 PM 43.3 °F 38.1 °F 14.0 °F 31% 30.15 in 10.0 mi NW 9.2 mph - N/A   Clear
5:14 PM 43.9 °F 38.3 °F 15.6 °F 32% 30.15 in 10.0 mi NW 10.4 mph - N/A   Clear
5:34 PM 43.3 °F 38.6 °F 14.9 °F 32% 30.15 in 10.0 mi NNW 8.1 mph - N/A   Clear
5:54 PM 43.7 °F 39.7 °F 14.7 °F 31% 30.15 in 10.0 mi NW 6.9 mph - N/A   Clear
6:14 PM 43.5 °F 41.9 °F 14.7 °F 31% 30.15 in 10.0 mi NW 3.5 mph - N/A   Clear
6:34 PM 43.9 °F 41.3 °F 16.3 °F 33% 30.14 in 10.0 mi NW 4.6 mph - N/A   Clear
6:54 PM 43.3 °F 41.7 °F 16.7 °F 34% 30.14 in 10.0 mi WNW 3.5 mph - N/A   Clear
7:15 PM 43.2 °F 40.5 °F 18.7 °F 38% 30.13 in 10.0 mi West 4.6 mph - N/A   Clear
7:35 PM 42.3 °F 39.4 °F 20.5 °F 42% 30.13 in 10.0 mi WNW 4.6 mph - N/A   Clear
7:55 PM 41.0 °F - 21.7 °F 46% 30.13 in 10.0 mi Calm Calm - N/A   Clear
8:15 PM 38.5 °F 36.1 °F 21.9 °F 51% 30.14 in 10.0 mi WSW 3.5 mph - N/A   Clear
8:35 PM 38.1 °F - 21.0 °F 50% 30.14 in 10.0 mi Calm Calm - N/A   Clear
8:55 PM 34.9 °F 29.9 °F 23.2 °F 62% 30.14 in 10.0 mi SW 5.8 mph - N/A   Clear
9:10 PM 33.8 °F 28.6 °F 23.5 °F 66% 30.15 in 10.0 mi SW 5.8 mph - N/A   Clear
9:30 PM 33.4 °F 28.1 °F 23.7 °F 68% 30.15 in 10.0 mi SW 5.8 mph - N/A   Clear
9:50 PM 32.2 °F 26.7 °F 23.2 °F 69% 30.15 in 10.0 mi SW 5.8 mph - N/A   Clear
10:11 PM 32.5 °F 29.3 °F 23.0 °F 68% 30.15 in 10.0 mi South 3.5 mph - N/A   Clear
10:31 PM 32.2 °F 28.9 °F 23.4 °F 70% 30.15 in 10.0 mi SSW 3.5 mph - N/A   Clear
10:51 PM 31.8 °F - 23.0 °F 70% 30.15 in 10.0 mi Calm Calm - N/A   Clear
11:11 PM 30.9 °F - 23.2 °F 73% 30.15 in 10.0 mi Calm Calm - N/A   Clear
11:31 PM 30.6 °F - 22.3 °F 71% 30.15 in 10.0 mi Calm Calm - N/A   Clear
11:51 PM 30.0 °F - 23.0 °F 75% 30.15 in 10.0 mi Calm Calm - N/A   Clear